Temp
15 17 18 18 18 18 18 17 17 17 18 19 19 20 20 20 20 21 21 21 21 21 21 21 21 21 21 22 22 22 21 19 19 21 24 28 28 27 27 27 27 27 27 28 28 29 29 30 30 30 30 31 31 32 32 32 32 31 32 30 28 29 29 29 31 30 28 28 29 30 30 30 30 30 31 31 32 32 31 31 31 31 31 31 30 29 28 27
17 18 19 18 18 18 18 17 18 18 18 19 19 20 20 20 20 21 21 21 21 21 21 21 21 21 21 21 21 21 20 18 19 24 26 28 27 27 28 27 27 27 28 29 29 30 31 31 31 31 31 32 32 32 32 32 32 31 32 31 29 31 31 30 31 30 30 30 29 30 30 30 30 30 31 31 31 31 31 31 31 30 30 30 30 29 28 27
18 18 18 18 18 18 18 18 18 19 19 19 19 20 20 20 21 21 21 21 21 22 21 21 21 21 21 21 21 21 19 19 24 27 28 27 27 27 27 27 27 27 28 30 30 31 31 31 31 31 31 32 32 32 32 32 32 32 32 31 31 32 32 31 30 30 30 30 30 29 30 30 30 31 30 31 31 31 32 32 31 30 30 29 29 29 28 28
18 18 17 17 17 17 18 18 18 19 19 19 19 20 20 21 21 21 21 21 21 22 22 22 21 21 22 21 21 20 18 22 28 29 28 28 27 27 27 27 27 27 28 29 30 30 31 32 32 32 32 32 33 32 32 32 32 32 32 32 32 32 32 31 30 30 30 30 30 29 30 30 30 30 30 31 31 31 31 32 32 31 30 30 29 29 29 29
16 16 17 17 17 17 18 18 19 19 19 20 20 20 20 21 21 21 21 21 22 22 22 22 21 22 21 21 21 19 20 26 30 29 28 28 27 27 27 27 27 27 28 29 30 30 31 32 32 31 32 32 33 32 33 33 32 32 33 33 32 32 31 31 30 29 29 30 30 29 29 29 30 30 30 30 30 31 30 31 33 32 31 30 30 30 29 29
16 16 16 16 17 17 18 18 19 19 19 20 20 20 21 21 21 21 21 21 22 22 22 22 21 21 21 22 20 18 22 29 29 28 27 28 27 27 27 27 27 27 28 29 30 31 31 31 32 32 32 33 33 33 33 33 32 32 33 33 32 32 31 31 30 29 29 30 30 30 30 29 29 30 30 30 30 31 31 32 33 32 32 31 30 30 29 29
15 16 16 16 16 17 18 19 19 19 20 20 20 21 21 21 21 21 21 22 22 22 22 22 21 21 21 21 19 20 27 30 29 28 27 27 27 27 27 26 27 27 28 30 30 31 31 31 32 32 32 33 32 33 33 33 33 32 33 32 31 31 31 31 30 29 29 30 29 30 29 29 29 29 30 30 31 32 32 32 32 32 32 31 30 30 29 29
16 16 16 16 16 17 18 19 19 20 20 20 20 21 21 21 22 21 21 22 22 22 22 22 21 21 21 20 21 27 30 30 28 27 27 27 27 27 26 26 26 28 29 30 31 32 32 32 32 32 32 33 32 32 32 33 33 33 32 32 31 30 30 30 30 29 30 29 29 29 29 29 29 29 29 30 31 31 32 32 32 32 32 31 30 29 30 30
16 16 16 17 17 17 18 19 19 20 20 21 21 21 21 22 22 22 22 22 22 23 22 22 21 21 20 19 25 31 30 28 28 28 27 27 27 26 26 27 27 28 29 30 31 32 32 32 32 32 32 32 32 32 33 33 32 32 31 31 31 30 29 29 29 29 29 29 29 29 29 29 28 29 29 29 30 31 31 31 31 31 31 31 30 29 30 29
16 17 17 17 17 18 18 19 20 20 21 21 21 22 22 22 22 22 23 23 23 23 22 22 21 21 20 20 27 31 28 28 27 27 27 27 27 26 27 28 27 28 30 30 31 31 32 32 32 32 32 32 32 32 33 32 32 31 31 31 30 29 29 29 29 29 29 29 28 29 29 29 28 29 29 29 30 31 31 31 31 31 31 31 30 30 30 30
17 17 18 18 18 18 18 19 20 21 21 21 22 22 23 23 23 23 23 23 23 23 22 22 21 21 19 23 29 30 28 27 27 27 27 27 27 27 27 28 28 29 30 30 31 31 31 32 32 32 32 32 32 33 33 32 32 31 31 30 29 29 29 29 29 29 29 29 28 29 29 29 28 28 29 29 30 31 31 31 31 31 31 31 31 30 30 31
17 18 18 18 18 18 19 19 20 21 22 22 23 23 24 24 24 24 24 24 23 23 22 21 21 20 20 25 30 29 28 27 27 27 27 27 27 27 28 27 28 29 30 31 31 31 31 31 32 32 32 32 32 33 32 32 32 31 31 31 30 30 29 28 29 28 29 29 28 28 28 29 28 28 29 29 29 30 31 31 31 31 31 31 31 30 30 31
17 18 18 19 19 19 19 20 21 22 22 23 23 24 24 24 24 24 24 24 23 23 22 21 21 19 21 28 30 28 27 27 27 27 26 27 27 27 27 27 28 28 29 31 31 30 30 31 31 32 32 32 33 32 32 32 32 32 32 31 30 30 29 29 29 28 29 28 28 28 26 26 29 28 28 28 28 29 30 31 31 31 31 30 31 30 30 31
17 18 18 19 19 19 19 20 21 22 23 23 24 24 24 24 24 24 24 24 23 23 21 21 20 18 23 30 29 27 28 27 27 27 27 27 28 28 27 27 27 28 28 29 30 30 30 31 31 32 32 32 33 32 32 32 32 32 32 31 31 28 26 29 29 29 30 28 28 28 25 26 29 28 27 27 27 28 29 31 31 31 31 30 30 30 30 31
17 18 18 19 19 19 20 20 21 22 23 24 23 23 23 24 24 24 24 24 23 22 21 20 19 20 27 31 28 28 28 27 28 28 28 28 29 30 29 28 28 28 28 28 29 29 30 30 31 32 32 32 32 32 33 33 33 33 29 27 30 27 26 30 29 29 30 28 29 28 26 28 30 28 27 27 27 28 28 30 31 30 30 30 30 30 30 31
17 18 19 19 20 20 20 20 22 22 23 23 22 22 23 23 24 24 24 23 22 21 20 21 20 22 29 31 28 28 29 29 30 29 29 29 30 31 30 29 29 28 28 29 29 29 30 31 32 32 32 32 32 32 32 30 30 33 29 25 27 27 27 30 28 28 29 28 29 28 27 30 30 29 28 28 27 28 28 29 31 29 28 28 28 29 30 31
18 18 19 19 20 20 20 21 22 23 23 23 22 22 22 22 22 22 22 22 21 20 19 21 22 24 29 30 28 29 31 31 30 29 29 29 30 31 30 30 30 29 29 29 29 30 31 31 32 32 32 32 33 33 29 24 24 29 30 27 27 28 27 28 28 28 28 28 29 29 28 30 31 30 30 29 28 28 28 29 30 28 27 27 27 28 29 30
18 18 19 19 20 20 21 21 22 23 23 22 21 21 22 22 21 21 21 20 20 20 20 21 23 25 28 30 30 31 31 31 30 30 29 28 29 30 31 31 31 31 30 30 30 31 31 32 32 32 32 32 33 32 26 24 26 26 27 26 27 28 28 28 28 28 28 28 29 30 29 30 31 31 30 29 29 28 28 28 29 28 28 27 27 27 28 29
18 19 19 20 21 21 21 21 23 24 23 22 21 20 21 21 20 20 20 21 22 25 26 26 27 28 29 30 32 31 30 30 29 30 30 29 29 30 31 31 32 31 31 31 31 31 32 31 31 30 30 31 32 32 29 30 31 29 29 27 26 27 28 30 30 28 29 28 30 30 30 30 31 31 30 29 29 28 27 28 28 28 27 27 27 27 28 27
19 19 20 20 21 21 21 22 23 24 23 22 20 20 22 24 25 25 24 24 27 29 30 30 30 30 31 31 32 31 30 29 30 31 31 30 30 31 31 31 32 31 31 32 31 32 32 30 30 30 31 32 33 33 33 33 32 32 31 29 28 27 27 30 30 28 28 28 30 31 30 30 30 30 30 29 28 28 27 27 27 27 27 27 27 26 28 27
19 19 20 21 21 22 22 22 23 23 23 22 20 23 27 28 28 28 27 28 30 30 30 30 30 30 31 31 31 31 31 31 31 32 31 30 32 31 31 31 31 31 32 32 31 32 31 29 30 32 33 33 33 33 33 32 32 32 31 29 28 28 28 30 29 28 27 27 30 31 29 30 31 30 29 28 28 27 26 26 26 25 25 27 26 25 27 27
19 20 20 21 22 22 22 22 23 23 23 22 22 27 29 27 26 26 27 29 31 30 29 29 29 30 31 30 30 30 31 31 31 32 31 30 32 31 31 31 31 32 32 31 31 30 29 29 32 33 33 32 32 33 32 32 32 32 31 29 26 29 30 28 28 28 28 28 30 31 29 30 31 29 28 28 27 26 25 25 24 23 24 24 24 25 26 26
19 20 20 21 22 23 22 22 23 23 23 23 25 29 28 25 25 24 25 28 30 30 29 29 30 31 31 31 30 29 31 32 32 32 31 31 32 32 31 32 32 32 31 31 31 29 27 30 33 32 32 32 32 32 32 31 32 32 31 27 26 30 29 25 27 29 28 28 29 30 29 31 31 29 28 28 26 25 24 23 23 23 24 23 23 25 26 27
19 20 20 22 23 23 23 22 22 23 23 23 26 27 26 24 25 25 26 29 30 30 30 30 30 31 31 31 30 30 32 33 32 32 32 31 32 32 32 32 32 32 32 32 32 30 29 31 33 31 31 32 31 31 32 30 30 31 32 29 28 31 30 28 29 29 29 28 29 29 27 28 30 29 29 28 26 25 23 22 22 23 23 23 24 26 27 29
20 20 20 21 22 24 23 22 23 23 23 25 26 25 24 24 25 24 27 29 29 30 30 30 30 31 31 30 30 31 32 32 33 33 32 32 32 32 32 32 31 32 32 32 31 32 32 32 32 31 31 32 32 31 32 31 28 29 32 33 32 33 32 31 31 29 26 25 27 28 23 23 28 29 29 29 27 25 24 22 22 22 22 23 26 26 28 30
20 20 20 20 22 24 24 24 24 22 24 27 26 25 24 25 24 24 27 29 28 30 31 30 31 31 31 31 31 31 31 31 32 32 32 32 32 32 32 32 32 32 32 32 32 32 32 32 31 32 31 32 32 32 32 33 29 26 30 33 33 34 32 31 30 27 24 24 27 29 24 22 25 27 29 29 28 26 24 23 22 22 22 23 25 27 28 30
19 20 20 20 21 21 23 25 23 23 26 27 25 24 25 25 25 24 26 25 25 29 31 30 31 30 31 32 32 31 29 30 32 31 31 31 32 32 31 32 32 31 32 32 28 30 32 32 31 32 32 32 31 31 33 34 29 26 30 33 32 33 32 31 30 27 26 27 27 28 27 23 23 26 29 29 28 27 26 24 22 22 22 23 25 27 28 30
20 20 20 21 21 20 20 21 21 25 27 25 24 24 25 25 25 26 25 22 25 30 32 31 30 30 31 32 32 31 31 31 31 31 32 31 31 32 31 32 33 32 33 30 26 29 33 32 32 32 32 32 31 31 33 33 30 29 31 33 33 33 32 32 30 27 28 27 23 26 27 23 22 25 29 29 28 28 27 26 24 23 22 23 25 27 28 29
20 20 20 21 21 21 20 19 19 24 25 24 24 24 25 25 25 28 25 22 27 31 31 31 30 30 32 32 31 32 32 32 32 31 32 31 31 32 31 32 33 32 32 31 29 32 33 32 32 32 32 32 32 32 33 33 32 31 32 33 33 33 32 32 31 27 27 25 22 24 26 23 22 25 27 28 27 28 28 28 27 25 24 24 25 27 28 28
21 20 20 21 21 19 19 19 20 22 23 23 24 24 25 26 26 25 22 24 28 30 31 31 31 31 32 32 32 32 32 32 33 32 32 32 31 32 31 32 32 32 33 32 32 33 33 31 31 32 32 32 32 32 32 32 33 32 32 32 31 32 32 31 30 27 24 23 23 24 25 24 22 24 27 28 28 29 29 28 27 27 26 26 26 27 28 28
21 21 20 21 20 18 19 22 22 22 23 23 24 25 26 28 28 23 22 26 29 29 31 31 31 32 32 32 32 32 32 32 33 32 32 32 32 32 31 31 31 31 31 31 31 33 33 31 32 32 31 32 32 32 31 32 32 32 33 32 28 27 28 26 26 25 23 22 23 25 26 24 22 23 28 30 30 31 30 29 27 26 27 27 28 28 27 28
21 22 21 21 21 19 21 24 23 22 23 23 24 27 27 26 25 23 24 27 27 28 32 31 32 32 32 32 32 32 33 32 32 32 32 32 32 33 32 31 31 28 25 27 29 30 32 32 32 32 31 32 32 31 31 31 32 33 32 28 24 23 23 23 22 23 22 22 24 26 25 24 23 26 30 31 31 31 30 30 28 27 26 27 28 28 27 28
21 22 22 22 21 20 20 22 22 22 23 24 25 29 28 24 23 24 27 28 26 29 32 31 32 32 31 31 32 33 33 32 33 32 33 33 32 33 33 33 33 29 25 27 27 26 28 31 32 32 31 32 32 31 28 29 31 31 29 25 23 22 22 22 22 22 22 22 24 26 25 23 24 27 31 31 31 31 30 30 28 28 28 27 28 28 28 28
22 22 22 22 21 20 20 21 22 22 23 24 27 29 26 22 24 27 28 29 29 30 31 31 32 31 31 31 32 33 32 31 33 32 32 32 31 31 33 33 33 32 31 28 26 25 24 25 30 31 31 31 33 32 30 31 32 32 33 30 25 23 23 22 22 22 22 23 23 24 24 23 23 27 31 31 31 31 30 29 28 28 28 28 28 28 28 29
22 22 22 21 21 21 21 21 22 22 23 26 29 27 23 22 25 27 28 31 31 31 31 31 31 31 30 32 32 33 31 30 32 33 32 32 31 31 33 33 32 33 32 27 26 27 23 24 30 31 31 32 32 32 33 32 31 32 34 30 25 26 26 23 23 23 23 23 23 23 24 26 27 29 31 31 31 31 30 30 28 28 29 28 26 26 26 27
22 21 21 21 20 20 21 21 22 22 24 28 28 25 25 26 28 29 30 31 31 31 31 30 31 29 28 30 32 32 31 31 32 32 31 32 32 32 33 33 33 33 32 29 27 27 23 24 31 32 31 33 32 32 33 31 29 30 30 27 28 32 30 24 22 24 23 22 23 23 24 27 29 29 31 31 30 31 30 30 28 27 28 27 25 24 24 25
20 21 22 23 21 21 22 22 22 22 25 29 27 25 28 30 30 30 30 30 30 31 30 27 28 28 26 27 30 32 31 31 31 30 29 31 31 32 33 33 33 33 34 32 30 30 26 24 30 32 31 32 32 31 33 32 31 30 27 28 31 32 30 26 23 23 23 22 23 23 23 24 24 25 29 31 31 31 31 30 28 27 27 26 25 25 24 24
17 19 22 23 21 21 23 22 22 24 27 28 27 27 29 30 29 29 30 30 29 31 30 27 28 29 28 26 28 32 31 29 30 30 29 29 29 31 34 33 32 32 33 33 31 32 30 24 27 33 31 31 33 31 30 32 34 31 29 32 31 26 25 25 23 22 22 22 23 23 23 23 23 24 28 30 31 31 31 30 28 27 27 26 26 25 24 24
17 22 24 22 21 21 22 21 23 26 27 27 27 28 28 29 29 29 29 30 29 30 30 29 30 30 30 29 29 32 31 29 30 30 28 29 29 31 34 33 32 32 32 34 32 33 32 25 24 31 33 32 32 31 27 28 32 33 32 33 32 27 25 24 24 23 22 22 22 22 22 23 25 28 30 30 31 31 30 30 28 27 27 26 26 26 26 25
21 24 25 22 21 22 22 22 24 27 27 27 28 28 28 29 29 29 29 29 29 30 30 31 31 30 30 31 31 32 32 31 32 30 29 30 30 30 33 33 32 32 31 33 33 32 33 28 23 28 33 30 28 29 28 28 30 30 28 28 28 28 28 26 26 25 23 22 22 22 22 23 27 31 31 30 30 30 29 29 28 27 26 25 25 26 26 26
22 25 25 22 22 22 22 24 26 27 27 28 28 28 28 28 28 29 30 29 29 30 30 30 31 31 31 31 31 32 32 32 32 31 31 31 30 30 32 33 33 32 31 32 33 32 31 29 25 25 27 26 26 30 31 30 30 30 28 28 27 27 26 24 24 24 24 23 22 23 22 23 27 30 30 29 30 29 28 28 27 27 27 26 25 25 25 26
23 25 25 22 22 23 24 26 27 27 28 28 28 28 27 27 28 29 29 29 29 30 30 30 30 31 31 31 31 32 32 31 32 31 31 32 32 32 32 33 33 33 32 32 33 32 31 30 26 24 26 28 29 30 29 29 31 31 30 30 30 29 26 22 22 23 24 23 23 23 22 23 27 28 28 28 28 28 27 27 27 27 27 26 25 25 25 25
24 25 24 23 22 23 25 27 27 26 27 28 27 27 27 27 28 29 29 29 29 29 29 30 30 30 31 31 31 32 31 31 31 32 32 33 34 33 32 32 32 33 34 33 32 31 30 30 25 23 26 29 30 30 30 30 30 29 30 31 30 29 28 26 25 25 23 23 23 22 21 23 26 27 27 27 27 27 27 27 27 27 27 27 25 25 24 24
23 23 24 24 23 24 25 27 27 27 27 27 27 27 27 28 28 28 28 29 29 29 29 30 31 30 31 31 31 32 31 29 30 32 33 32 33 32 31 32 32 33 33 33 33 31 29 28 25 23 23 25 25 27 27 28 29 29 30 30 30 29 29 28 27 26 23 23 23 22 22 23 26 27 27 27 27 28 28 27 27 27 27 27 26 25 24 24
21 23 24 25 25 25 26 26 27 27 27 26 26 27 27 27 28 28 28 28 29 29 29 30 30 30 31 31 30 31 31 29 30 32 32 32 32 31 31 32 32 33 33 32 33 33 30 29 27 23 21 22 22 23 24 26 28 29 29 29 29 29 29 27 25 23 22 23 23 22 22 24 27 28 28 28 28 28 28 28 28 27 27 27 26 24 24 24
22 24 25 25 26 26 25 26 26 26 26 26 26 27 27 27 28 28 27 28 29 29 29 29 30 30 30 30 30 31 32 31 31 31 32 33 32 31 31 31 31 32 31 30 32 33 31 30 29 25 23 24 23 24 28 29 27 26 27 28 29 29 29 27 24 22 23 23 22 23 24 24 27 29 29 29 29 29 29 29 28 27 27 26 25 24 24 24
22 23 24 24 25 25 25 26 26 25 26 25 25 26 26 27 28 28 27 28 28 28 28 29 30 29 30 30 30 30 31 32 31 31 32 33 32 31 30 31 31 30 29 30 32 33 30 28 28 28 27 27 28 28 30 30 27 26 27 27 28 29 28 26 24 24 25 23 21 24 26 24 25 30 30 29 29 29 29 29 28 27 27 26 25 25 25 24
22 22 23 21 22 25 25 24 25 25 25 25 25 26 26 26 27 27 27 28 28 28 28 28 29 29 29 30 29 29 31 30 30 31 32 32 32 31 30 31 31 29 30 31 32 32 30 27 28 29 28 29 31 30 30 30 29 28 28 27 28 28 27 26 25 26 27 23 22 25 26 24 26 30 30 29 29 29 28 28 27 27 26 25 25 25 25 24
22 22 22 21 22 24 24 23 23 24 24 25 25 25 26 26 27 27 27 27 28 28 28 28 28 29 29 29 28 29 30 28 27 30 32 31 32 32 31 31 31 30 32 32 31 31 30 27 29 30 27 28 30 29 30 29 28 28 28 29 29 28 28 27 27 29 28 25 26 27 26 26 28 30 29 29 28 28 27 27 26 26 26 25 25 25 25 24
20 21 21 21 22 23 23 23 23 23 24 24 24 25 26 26 26 26 26 26 27 28 28 27 28 28 28 28 28 29 30 28 27 29 31 31 31 32 32 31 31 31 32 32 31 31 28 26 29 30 26 26 29 29 29 29 28 27 27 29 29 28 28 28 27 28 28 26 28 28 26 26 29 29 29 28 27 27 26 26 26 26 25 25 25 25 25 24
17 17 17 19 22 22 22 23 23 23 24 24 24 25 25 25 25 25 26 27 27 27 27 27 27 27 28 28 28 28 28 27 27 28 29 30 31 31 32 32 33 32 31 32 31 31 29 28 28 28 24 23 27 28 28 29 28 26 25 27 28 27 27 28 28 28 27 26 26 26 24 26 28 28 28 27 27 27 26 26 26 25 25 25 25 25 25 24
16 17 17 18 21 22 22 23 23 23 24 24 25 25 24 25 25 24 25 27 27 27 27 26 26 27 28 28 28 27 27 27 27 28 28 29 30 31 31 32 33 32 31 32 31 31 31 29 27 26 23 22 27 28 27 27 25 23 25 28 29 29 28 29 29 29 29 28 26 25 26 28 28 28 28 27 27 27 26 26 25 25 25 25 25 25 24 24
Height
806 804 803 802 801 800 799 798 797 796 795 794 793 793 792 791 790 790 789 788 787 785 785 784 782 782 781 780 778 777 776 775 776 776 775 771 769 770 771 772 773 774 776 777 778 778 777 778 777 777 776 774 774 772 771 770 768 774 781 788 790 787 789 790 785 785 791 793 786 781 780 782 786 781 774 773 774 776 778 778 777 777 776 776 779 782 786 791
806 805 803 802 801 800 799 797 797 795 794 793 792 792 791 791 790 789 788 787 787 785 784 783 782 781 780 779 778 777 775 775 775 774 771 770 769 770 770 771 773 774 776 777 777 776 776 776 775 775 775 775 773 773 774 771 770 778 781 785 788 786 783 780 779 780 782 784 784 781 779 781 783 780 776 779 782 779 782 783 780 782 781 780 781 785 788 790
806 805 803 802 801 799 798 797 796 795 794 793 792 792 791 790 789 789 788 787 786 785 784 783 782 781 780 779 777 776 776 775 774 772 769 769 769 769 771 772 773 775 775 776 776 775 775 774 774 774 775 776 773 774 776 772 773 777 780 785 784 781 779 776 778 779 779 779 783 783 780 782 781 777 777 781 784 781 782 781 781 786 785 783 783 784 788 790
806 805 803 802 801 799 798 797 796 795 794 793 792 791 791 789 789 788 787 786 786 785 784 782 781 780 779 778 777 777 775 776 774 770 769 769 770 770 771 772 774 775 776 776 776 776 775 773 773 773 777 778 773 774 776 773 775 777 779 784 781 777 779 777 777 777 777 777 780 784 782 784 780 776 779 782 785 785 782 778 776 781 782 783 783 783 787 789
806 805 803 802 800 799 797 797 795 794 793 792 791 791 790 789 788 787 786 786 785 784 783 782 781 780 779 777 777 776 777 781 775 768 770 770 770 771 772 773 774 776 776 777 776 776 775 773 773 774 777 778 775 776 777 771 772 777 776 777 776 776 781 778 775 777 777 776 779 783 785 784 779 779 779 782 788 786 782 777 769 772 776 779 780 782 785 787
807 805 803 802 800 798 797 796 795 794 793 791 791 790 789 789 787 786 786 785 784 784 783 781 781 779 779 777 776 776 778 782 773 768 771 770 771 772 772 774 774 776 777 776 775 775 775 773 775 778 778 777 777 778 777 771 771 780 777 773 775 775 779 776 775 778 777 778 782 782 782 780 782 784 779 781 785 778 774 771 767 768 772 775 778 781 784 786
807 805 803 801 799 798 796 795 794 793 792 791 790 789 788 788 787 786 784 784 783 783 782 781 780 779 778 776 777 775 773 774 770 769 772 770 772 772 773 774 774 776 776 775 775 774 774 775 776 777 778 779 779 778 777 772 771 780 780 775 777 776 777 775 774 777 776 780 781 778 779 781 787 787 781 781 779 771 769 768 767 768 770 774 778 781 783 785
806 805 803 801 799 798 796 794 793 792 791 790 789 788 787 786 786 785 784 783 782 782 781 780 780 779 777 777 776 772 770 771 770 771 771 771 772 772 774 775 775 776 775 775 774 773 773 776 776 775 780 779 777 778 776 774 773 778 780 777 777 777 777 774 774 777 777 779 779 778 783 784 784 783 783 782 776 770 769 768 768 769 772 775 778 781 783 784
806 805 803 801 799 797 795 794 792 791 790 789 788 787 786 785 784 784 783 782 781 781 780 780 779 778 777 776 772 772 773 771 770 771 771 772 772 773 775 774 776 776 775 775 772 773 773 774 774 773 779 778 776 777 774 778 780 778 778 777 777 779 778 776 777 779 779 779 779 783 787 784 781 781 785 781 775 772 769 770 771 771 775 777 779 781 782 784
806 804 803 801 798 797 795 793 791 790 789 788 787 786 785 784 783 782 781 781 780 780 780 779 779 777 778 776 773 776 774 770 771 772 771 772 773 773 775 774 776 775 774 774 773 773 771 772 772 769 774 776 776 777 774 778 779 775 777 777 779 781 779 778 780 779 779 780 781 785 789 785 780 784 788 780 773 771 770 772 773 774 777 777 779 781 782 783
806 804 803 800 798 797 794 792 791 789 788 786 785 784 783 782 781 780 779 780 779 779 779 779 778 777 778 775 773 775 772 770 772 771 772 773 773 774 775 775 775 775 774 773 774 773 771 771 769 770 776 776 776 777 774 774 773 773 777 780 781 781 780 780 782 781 780 782 781 783 786 783 782 786 787 779 772 772 772 774 774 776 777 777 779 781 782 783
806 804 802 800 798 796 794 792 789 788 787 785 784 782 781 780 779 778 778 778 778 778 778 778 778 778 777 774 772 772 770 771 772 771 772 773 774 774 774 775 775 775 774 773 774 773 773 772 770 774 777 774 777 779 776 770 770 774 775 783 786 783 786 785 783 782 782 785 780 781 789 788 788 788 782 776 774 772 773 775 776 777 777 778 779 781 783 782
806 804 802 800 797 795 793 791 788 787 785 784 783 781 780 779 777 777 776 776 777 777 777 778 778 777 778 775 770 770 771 771 771 771 772 773 774 774 774 775 775 775 775 773 773 774 775 773 772 774 773 774 778 777 774 769 772 776 775 782 787 788 792 787 783 783 783 785 778 783 798 797 790 786 780 777 776 777 777 776 776 776 777 778 779 781 782 782
806 804 802 799 797 795 792 790 788 786 784 783 781 780 779 777 776 776 775 776 776 777 777 777 778 778 777 773 769 770 770 771 771 771 772 773 773 773 774 774 775 776 776 775 775 775 775 773 772 773 771 774 775 772 774 774 774 778 780 783 784 792 796 786 782 784 786 785 777 786 801 796 788 784 780 779 778 780 781 777 775 776 777 778 779 781 782 782
805 803 801 799 797 794 792 789 787 785 784 782 780 779 778 777 776 775 775 776 776 777 777 777 777 777 775 771 769 770 770 770 770 771 771 772 772 772 773 774 775 776 776 776 776 775 775 773 773 775 774 772 773 778 781 779 776 777 788 792 785 790 794 786 782 783 787 785 778 789 797 788 784 783 780 778 778 780 782 778 774 775 778 779 780 781 781 781
805 803 800 798 796 793 791 788 786 784 783 781 780 779 778 777 776 775 776 776 777 777 777 778 777 777 776 773 770 769 769 769 769 770 771 771 771 770 772 774 774 775 776 776 775 775 774 773 774 775 775 775 777 781 782 784 783 779 787 794 789 788 789 787 786 781 783 786 783 789 794 786 781 780 777 776 778 780 782 779 774 777 781 782 782 781 780 780
804 802 799 797 795 793 790 787 785 783 782 781 780 779 778 778 777 777 777 777 778 777 777 778 776 776 775 770 770 770 767 767 768 769 770 771 771 771 772 772 772 774 775 775 776 775 774 774 776 776 776 778 777 781 791 797 791 782 782 787 786 788 788 788 790 785 782 788 787 787 790 786 778 775 774 775 777 779 781 779 776 778 782 782 784 784 782 781
803 801 798 796 794 792 789 787 784 783 782 780 780 779 779 778 778 778 777 778 778 777 779 778 775 781 781 771 770 769 765 767 768 768 770 770 771 771 771 769 770 772 775 777 776 775 776 775 778 781 781 782 780 785 797 795 787 785 785 786 786 786 787 788 791 788 784 789 789 786 787 783 775 772 773 773 774 779 780 778 776 777 781 783 784 785 784 783
802 800 797 795 793 791 788 786 784 782 781 780 780 779 778 778 778 778 778 778 778 778 779 776 774 781 780 769 765 765 764 766 768 768 769 769 771 771 770 769 769 772 777 781 779 777 777 779 783 788 787 784 782 782 785 782 780 786 786 787 790 788 786 785 787 786 784 790 788 784 785 781 777 774 774 772 772 777 779 777 776 777 781 783 784 785 783 786
801 799 796 794 792 790 787 785 783 782 781 780 780 779 779 779 778 778 776 775 773 771 771 769 768 771 770 765 763 764 765 766 766 766 767 768 769 769 769 769 771 774 778 780 780 775 775 786 789 786 783 778 776 776 775 776 779 784 785 786 788 787 785 783 787 786 784 790 785 781 784 781 777 775 774 773 773 776 777 778 778 778 781 781 785 788 784 786
800 798 795 793 791 789 787 784 782 782 781 780 780 779 778 778 780 781 776 771 766 764 766 765 764 767 766 764 763 763 765 767 765 764 767 767 766 771 772 771 777 780 777 776 778 775 780 790 784 775 774 772 772 773 775 779 781 784 784 785 786 784 783 783 787 786 784 790 783 778 784 780 774 775 774 773 775 777 777 780 780 780 783 782 786 789 786 785
799 797 794 792 790 788 786 783 781 781 781 780 779 777 775 777 780 779 777 775 766 762 765 764 765 766 762 763 763 762 766 769 769 765 765 766 766 772 773 773 779 779 776 778 780 782 786 784 774 769 770 771 773 773 776 781 782 783 782 785 787 780 779 786 788 785 785 789 783 778 782 777 771 775 775 774 777 778 777 779 782 782 784 786 788 788 788 787
799 796 793 791 788 787 785 782 781 781 781 780 778 776 776 778 777 776 778 778 772 764 764 765 766 765 763 764 762 763 767 769 770 767 763 766 768 769 772 774 777 777 778 779 781 784 783 776 769 769 771 774 777 776 778 781 780 781 779 783 785 775 779 790 789 786 785 785 784 782 780 773 771 776 775 775 778 779 780 780 783 782 782 787 788 787 787 784
798 795 793 790 787 786 783 782 781 781 781 780 779 777 777 778 777 777 777 776 774 766 761 762 762 762 763 762 760 764 767 764 765 765 761 765 768 768 770 772 776 778 777 776 779 781 778 771 767 770 773 775 778 779 780 782 781 778 775 777 778 772 777 785 783 785 784 784 785 783 781 777 776 779 777 775 777 781 784 784 786 786 785 786 786 784 782 777
797 795 792 789 787 784 782 782 780 781 781 778 779 778 777 778 776 777 778 778 778 769 762 762 761 761 759 760 761 760 763 763 762 760 759 761 765 769 771 769 773 778 776 776 779 777 774 769 767 773 775 773 777 779 777 778 777 775 772 769 769 769 774 779 780 784 786 789 788 784 792 793 783 780 780 777 778 784 787 788 791 791 789 787 785 783 780 775
797 794 791 789 786 783 781 780 779 781 780 777 778 777 777 777 775 777 779 780 780 772 768 766 764 764 759 760 760 758 768 770 759 757 759 760 760 765 772 770 770 776 775 774 775 772 770 769 769 773 775 775 777 775 772 771 773 775 770 765 767 770 774 778 781 785 788 791 787 783 795 800 788 783 781 778 781 786 788 791 794 794 793 789 785 782 778 775
796 793 791 788 785 783 781 779 780 780 778 776 776 776 777 776 775 777 781 790 786 772 769 768 764 764 760 759 757 763 779 772 759 760 759 761 760 761 772 774 771 774 770 773 779 775 770 771 772 772 772 773 775 773 767 766 773 778 771 766 770 771 774 777 779 782 781 782 785 782 787 796 792 786 782 778 783 787 788 792 795 794 793 790 786 782 777 775
795 792 790 787 785 785 782 781 781 778 777 777 775 777 777 775 776 777 787 803 791 767 764 765 761 759 757 757 757 764 771 764 768 769 756 759 762 762 773 772 770 773 767 775 785 773 766 772 774 773 771 769 770 770 764 764 775 778 769 765 768 769 773 774 775 779 776 781 790 784 782 796 796 785 781 781 784 788 788 790 792 792 793 790 786 782 776 775
793 791 789 786 783 782 781 781 780 777 776 775 776 778 775 775 777 778 790 801 783 762 762 762 762 761 759 761 762 763 762 760 770 767 756 761 762 762 771 768 767 773 768 772 779 769 765 768 768 770 771 768 769 768 764 766 773 771 766 766 767 769 770 771 774 776 778 789 796 786 783 798 799 784 780 786 786 786 786 785 786 787 788 788 784 780 776 775
792 789 787 784 781 781 780 779 776 776 775 775 777 776 775 777 779 789 804 797 774 765 762 761 764 763 763 767 767 765 765 763 763 762 761 764 761 761 765 762 765 772 769 769 772 767 763 763 763 767 768 766 767 767 765 765 766 765 766 770 774 774 772 774 774 775 789 799 794 785 782 793 802 787 776 782 781 778 780 782 784 783 782 783 781 777 776 774
790 788 785 782 780 780 779 776 774 774 775 776 776 775 777 780 782 797 803 781 767 769 764 763 766 763 764 770 770 767 767 765 762 765 768 766 766 768 768 768 770 773 773 770 770 767 764 766 766 764 764 763 765 768 768 764 762 766 769 773 783 785 783 786 783 785 804 809 792 784 782 790 804 792 773 773 771 769 775 780 784 785 781 778 775 774 776 773
788 785 783 780 778 778 777 775 773 774 775 775 775 774 779 788 792 793 785 772 773 773 764 766 766 763 766 769 768 766 766 767 763 765 768 767 769 768 769 771 770 777 781 773 772 771 767 768 766 765 764 762 766 771 773 771 768 770 771 779 792 796 798 804 800 796 805 804 790 784 789 792 793 782 771 771 769 766 769 771 776 779 778 776 772 773 775 771
786 782 779 777 775 774 774 773 773 775 775 774 775 774 781 797 796 780 770 771 775 767 760 764 763 763 769 770 768 764 765 767 764 764 765 765 770 767 764 764 763 775 781 773 774 774 774 773 767 768 768 762 765 771 777 777 773 773 773 780 793 799 807 813 802 797 801 798 787 784 791 794 786 776 769 768 766 764 764 767 770 770 771 772 770 771 772 769
783 780 777 774 773 773 772 772 773 774 774 774 775 779 791 801 787 770 768 768 766 762 761 764 764 765 769 768 765 761 766 769 762 764 767 767 773 770 764 764 763 768 771 773 774 772 782 787 775 772 771 765 765 766 770 770 766 768 765 771 784 788 800 807 798 797 800 794 789 792 795 793 788 779 768 762 761 760 761 764 767 766 764 766 767 768 770 770
781 778 775 774 773 773 771 771 772 773 774 773 775 785 796 793 776 767 768 763 761 764 762 762 765 768 769 765 762 759 764 769 762 764 769 767 770 767 762 763 763 764 768 777 778 771 782 788 773 768 766 764 767 763 761 767 769 766 762 770 779 775 781 792 790 790 791 791 793 794 788 776 773 770 760 760 762 759 761 763 766 767 763 765 772 775 775 774
779 776 774 774 774 772 771 771 771 773 772 772 780 787 784 776 768 765 764 761 763 765 764 766 766 768 769 766 766 763 762 765 764 766 767 765 765 763 761 759 759 762 765 771 776 774 783 785 771 767 767 764 767 764 759 768 774 770 766 772 771 764 770 785 790 785 788 799 794 785 779 767 767 772 764 762 765 762 762 763 767 770 766 770 779 780 779 776
777 775 774 774 773 772 771 771 771 773 771 773 782 782 771 766 764 763 762 762 763 762 766 771 767 766 768 766 766 765 764 765 765 767 767 766 765 761 760 760 756 758 757 760 769 769 777 784 773 768 773 767 761 763 761 760 765 770 772 768 763 765 770 780 795 794 793 802 789 777 782 775 774 784 774 765 767 765 763 764 768 771 771 775 780 777 775 774
778 775 774 773 772 771 770 771 772 772 771 776 781 777 769 766 763 762 763 763 763 763 767 769 765 763 765 765 764 762 765 767 766 767 767 767 765 757 756 760 758 757 753 755 766 765 769 784 778 766 771 768 758 765 771 762 757 764 767 762 766 782 783 782 795 800 800 805 791 780 785 778 775 780 774 770 770 766 765 766 770 773 774 777 777 774 773 773
778 774 773 773 773 771 771 773 772 770 773 780 781 775 769 766 763 761 762 763 764 766 767 764 762 764 763 762 762 761 764 765 763 766 767 766 766 757 752 756 759 760 755 754 763 764 765 783 786 770 764 766 763 767 776 772 762 760 762 761 765 778 782 781 786 789 797 804 798 793 790 778 773 772 769 771 770 767 768 769 772 774 775 776 775 773 772 771
777 774 773 774 774 773 772 772 771 773 776 777 774 770 768 767 764 761 759 762 763 764 765 763 763 765 763 760 760 760 761 762 761 763 764 762 763 759 752 752 757 760 757 755 760 762 765 778 786 775 764 769 775 775 776 776 772 769 771 771 771 773 775 779 779 776 786 798 800 804 800 778 768 767 767 770 769 767 770 771 773 774 774 777 776 773 771 770
777 774 773 773 773 772 772 773 772 773 774 773 770 769 769 768 766 762 759 760 762 760 761 763 763 763 762 761 760 758 760 762 760 761 761 758 760 761 753 748 753 757 760 761 761 762 767 773 780 778 772 776 781 776 772 775 774 774 775 773 774 776 778 790 793 777 776 789 792 800 803 784 768 766 766 767 769 768 770 773 774 773 774 776 775 774 773 769
777 775 774 773 773 771 772 773 772 771 772 771 769 768 769 769 767 765 761 760 762 760 759 762 763 762 762 761 759 758 759 760 759 759 759 755 754 754 750 746 748 751 755 761 760 758 762 769 777 781 778 777 778 773 772 774 771 772 773 770 772 775 778 792 800 786 780 785 783 790 800 788 773 769 768 769 769 769 771 773 774 773 772 774 775 775 774 771
778 776 772 772 772 770 773 775 773 773 772 768 767 767 767 768 767 765 763 763 763 762 762 762 761 761 760 757 758 759 759 760 758 756 756 754 749 747 747 747 748 748 752 759 761 760 764 773 782 786 781 775 774 771 770 771 772 774 772 770 773 776 776 782 785 785 789 788 785 795 801 790 778 772 771 772 771 770 771 771 773 773 770 772 775 776 775 773
780 778 772 771 771 770 773 775 773 773 771 769 771 769 766 767 767 766 765 764 762 762 764 762 758 758 757 755 758 758 758 762 761 754 753 755 751 747 746 746 748 749 751 756 758 760 769 778 783 790 792 787 785 784 780 776 776 776 772 773 777 776 778 781 779 784 794 786 784 799 800 788 781 775 771 773 772 770 770 769 771 772 770 772 774 775 776 775
781 778 773 770 768 768 771 771 770 771 772 773 775 771 768 767 764 763 765 763 760 760 763 760 755 755 754 755 759 757 755 759 760 755 753 753 751 749 748 748 748 747 748 751 750 753 768 776 779 788 798 800 798 795 788 780 775 774 774 777 779 777 780 785 784 791 798 788 786 796 793 783 778 773 771 772 771 770 769 767 768 769 770 771 773 776 776 775
782 779 775 770 766 767 770 769 770 773 773 775 776 772 772 770 763 761 763 763 760 759 761 759 755 756 757 757 761 761 755 754 756 756 755 753 751 751 749 749 750 748 751 754 749 752 766 773 773 781 788 789 789 785 778 775 776 779 781 780 779 778 779 783 788 794 793 788 790 789 784 783 779 772 771 770 769 770 769 766 768 769 769 771 773 776 775 775
784 782 780 778 775 772 771 770 771 773 773 775 776 773 772 771 766 763 763 762 760 759 760 758 756 759 760 759 761 760 755 754 756 757 755 750 749 751 751 750 751 752 755 754 750 756 770 775 773 777 779 776 777 776 773 775 777 779 782 781 779 780 780 783 788 788 786 792 797 786 781 788 783 771 769 769 768 770 768 767 769 769 770 771 773 774 773 773
785 784 782 784 784 777 775 775 774 774 774 774 775 773 773 771 769 768 765 761 759 758 761 762 759 759 759 758 761 759 756 758 759 757 754 752 751 754 754 752 751 753 754 754 752 756 769 774 771 773 776 774 774 775 774 776 777 777 779 780 780 781 783 784 784 780 781 792 794 783 782 788 781 771 768 767 767 768 768 768 768 768 770 771 772 772 773 774
785 784 782 784 784 779 777 778 778 777 775 775 775 774 774 772 770 769 766 765 763 759 761 765 762 759 757 757 761 760 757 761 762 756 752 752 752 753 757 758 755 751 751 755 756 757 765 773 772 772 777 777 775 776 775 776 778 778 777 777 777 779 779 780 780 775 777 783 781 777 781 781 773 768 766 765 765 767 767 768 768 769 771 772 772 772 773 774
790 789 787 785 783 780 778 778 778 778 775 776 777 773 771 772 771 768 766 768 769 762 760 765 765 760 758 757 759 760 757 759 763 758 752 753 753 750 752 755 753 753 753 755 757 759 766 775 774 772 779 780 776 777 778 778 780 782 780 776 775 778 778 778 779 776 778 780 776 776 781 778 768 764 765 766 766 767 769 769 769 770 771 772 772 772 772 773
796 795 794 792 784 780 780 777 777 779 776 774 775 771 770 771 770 771 768 763 764 764 762 765 766 761 758 757 759 760 757 757 760 756 751 752 751 747 747 745 746 754 757 756 758 760 766 774 774 776 785 783 774 776 778 775 778 782 782 778 777 779 779 776 775 775 777 779 779 779 780 776 769 766 766 768 767 767 770 770 770 770 770 771 772 771 772 773
799 796 795 794 788 781 780 777 777 780 776 771 771 771 771 771 769 772 771 762 759 761 761 763 765 763 760 760 760 759 756 754 754 751 748 748 745 743 744 742 741 749 754 755 758 759 762 771 773 780 789 783 774 776 776 778 788 791 781 772 771 772 773 772 771 771 771 774 778 778 773 768 766 766 767 768 768 768 769 769 770 771 770 770 770 770 771 771
Wind_Speed
14 14 13 14 13 13 13 13 13 12 11 10 8 7 7 7 7 7 8 9 10 12 13 13 12 13 13 13 14 15 16 10 5 5 7 5 5 7 6 11 13 13 12 10 11 10 9 9 7 7 7 5 4 2 1 3 3 3 3 1 1 3 4 2 2 1 2 4 4 4 3 3 4 6 4 6 5 4 6 5 5 5 5 8 13 20 23 22
14 14 14 14 13 13 13 13 13 12 11 10 8 7 7 7 7 7 8 9 10 12 13 13 12 12 13 13 14 15 14 7 7 6 7 5 4 8 7 11 15 14 12 10 10 9 8 7 7 8 6 4 3 1 1 1 2 3 3 2 2 5 5 3 4 2 1 1 3 3 2 2 1 5 5 6 5 6 6 6 6 7 8 11 16 20 21 21
15 15 15 15 14 14 13 13 13 11 10 9 9 8 7 7 7 7 8 9 10 11 12 13 12 12 12 13 14 14 11 7 6 1 0 3 5 6 8 13 17 14 9 8 7 6 5 5 7 7 5 4 2 2 2 1 2 2 3 2 5 5 3 4 4 1 0 0 4 4 2 2 1 3 4 4 3 6 5 5 7 7 10 12 16 19 20 20
17 17 17 17 16 15 14 13 12 11 10 9 9 8 7 7 8 8 9 9 10 11 12 12 12 11 12 12 13 11 7 7 2 6 4 3 6 7 12 16 16 11 6 5 5 4 4 5 7 6 5 4 3 3 3 1 1 2 2 4 6 4 3 5 4 1 1 0 3 4 3 3 3 3 4 3 3 4 0 1 3 7 11 14 15 18 19 19
19 19 19 19 17 16 15 14 13 12 10 9 9 8 7 8 8 9 9 10 10 10 12 12 11 11 11 12 12 7 5 4 5 6 3 4 7 10 14 15 14 8 5 6 5 4 5 6 6 6 6 4 3 4 2 1 2 3 2 4 5 4 3 4 4 1 2 1 3 5 4 2 3 4 5 5 4 2 3 4 0 7 11 14 16 17 17 17
20 21 21 21 20 19 16 15 13 11 10 9 9 8 8 8 9 10 11 11 10 11 11 11 11 11 10 12 8 3 5 1 5 3 3 6 9 12 14 14 12 8 6 7 6 6 6 6 7 6 5 4 3 2 1 1 3 4 1 3 4 4 4 2 3 2 3 2 4 4 2 2 3 4 3 5 5 2 3 4 1 7 10 13 16 16 16 15
22 22 22 23 22 21 18 16 13 12 10 10 9 9 8 9 10 11 11 11 11 11 11 11 11 10 10 9 4 5 4 5 6 2 3 8 12 12 12 13 11 8 6 7 7 7 6 7 8 5 5 4 1 1 2 2 5 5 3 3 4 3 3 2 1 3 4 1 2 2 2 3 4 3 2 5 6 3 3 2 3 8 11 13 15 15 15 15
24 24 24 24 24 23 21 17 14 12 11 10 10 10 10 10 11 11 12 12 12 11 10 11 9 9 9 6 4 5 2 7 5 3 3 7 12 13 12 12 10 7 6 7 8 7 7 8 6 3 5 3 1 1 2 5 5 4 5 3 2 2 2 1 2 3 4 2 1 2 3 3 2 2 2 4 4 3 3 1 5 9 11 13 13 14 14 13
25 26 26 26 26 25 23 19 16 14 12 11 10 11 11 11 12 12 12 12 12 11 10 9 8 8 8 5 7 4 5 6 3 5 5 5 11 14 12 9 10 7 6 7 7 7 7 6 4 2 4 2 2 3 3 5 1 3 6 3 1 2 3 1 3 3 3 3 1 3 3 2 2 2 4 4 2 3 3 3 7 9 11 11 12 14 13 13
27 27 27 27 27 26 25 21 17 15 13 12 11 12 12 13 13 13 13 13 13 11 9 8 6 6 6 5 9 2 6 4 4 6 5 5 9 14 11 8 9 8 6 7 8 7 4 2 1 2 4 2 2 3 3 5 3 4 3 3 3 3 4 2 3 3 2 2 1 3 3 2 3 3 4 3 2 3 4 6 8 9 11 11 11 13 12 12
28 28 28 28 27 27 26 23 19 16 13 13 13 13 14 14 14 15 15 14 12 10 7 6 4 4 5 8 6 2 5 3 4 5 6 6 8 11 9 8 9 8 7 6 8 6 1 2 2 2 3 1 2 3 1 4 4 1 0 3 4 3 5 3 3 2 1 1 3 3 4 4 6 5 2 3 2 3 5 7 8 9 9 10 11 12 10 10
29 29 29 28 28 28 26 24 20 16 14 13 13 14 14 14 14 14 14 13 12 9 5 4 2 3 5 7 2 5 4 2 3 6 7 7 7 6 5 7 8 7 6 6 8 5 2 2 4 5 1 2 4 3 1 2 4 2 4 2 3 4 4 3 3 1 2 1 4 4 6 6 7 4 2 3 0 3 6 6 8 8 8 9 11 10 9 10
30 30 30 29 29 28 27 25 21 17 15 13 13 14 13 12 11 10 10 10 9 6 4 2 1 2 6 3 5 4 4 3 3 5 7 7 5 4 4 5 6 4 3 4 4 3 4 3 5 5 3 4 3 2 2 2 4 4 4 3 2 5 3 2 2 2 3 0 3 4 5 2 4 4 4 2 1 2 6 7 7 8 8 9 9 9 9 10
30 31 30 30 29 29 28 26 23 18 14 13 12 11 10 10 9 7 6 5 4 4 3 1 2 2 5 2 6 4 3 1 4 5 7 8 5 4 4 4 5 4 2 0 2 1 3 3 5 4 2 4 3 2 5 5 4 4 3 3 3 3 2 4 3 2 3 1 1 4 4 0 4 5 5 3 1 2 6 8 8 8 8 8 9 10 10 11
30 31 31 30 30 29 28 27 23 18 14 12 10 9 9 8 5 2 2 3 2 2 2 1 1 3 4 4 5 3 2 3 5 6 8 8 7 5 6 6 5 5 3 1 0 0 2 3 6 5 2 1 3 5 6 4 5 4 4 4 3 2 2 5 4 1 2 1 2 5 5 2 3 6 6 4 2 2 5 8 9 8 8 8 8 9 9 11
30 31 31 31 30 30 29 27 23 17 12 10 8 6 6 6 5 4 6 6 3 3 2 0 1 5 3 5 5 3 3 4 4 5 7 8 6 4 7 7 6 6 5 2 3 2 3 5 4 3 2 3 5 6 5 4 5 5 5 3 2 3 1 3 4 2 2 1 4 6 5 5 1 5 4 3 1 3 5 9 9 8 9 7 6 7 9 10
29 30 31 31 30 30 30 27 23 16 11 8 5 4 5 4 6 7 7 6 3 4 1 2 2 5 2 5 5 4 3 3 3 5 7 7 5 5 7 7 7 7 6 4 4 4 4 4 2 2 5 5 4 4 5 6 5 5 5 4 2 3 4 1 3 3 2 3 5 6 7 8 5 2 2 2 3 6 7 10 10 9 10 8 6 7 8 8
29 30 31 31 30 31 30 28 22 14 9 7 3 2 3 3 5 5 5 5 3 3 2 3 3 4 2 5 3 3 4 3 4 5 6 6 5 5 5 4 6 8 8 6 6 7 5 4 3 4 5 5 5 5 7 4 2 2 2 3 2 2 4 1 2 2 2 4 5 6 7 8 7 4 3 2 3 6 8 9 10 10 10 10 9 9 8 8
29 29 30 31 31 30 30 28 21 11 7 5 1 1 1 3 3 2 3 3 2 3 1 2 3 3 3 5 2 3 3 3 4 6 7 7 7 6 4 3 6 8 7 6 7 7 5 4 5 5 5 7 8 8 9 5 5 5 4 4 4 4 4 1 3 2 1 5 6 7 7 8 9 5 4 4 4 7 9 8 9 10 11 11 10 9 9 9
29 29 30 31 30 30 30 28 18 7 6 4 1 3 2 1 1 3 4 5 5 5 3 0 2 3 1 4 3 2 3 4 5 7 8 8 8 7 6 5 6 7 6 4 5 5 4 5 6 6 6 7 8 9 10 8 6 7 6 5 5 6 3 2 3 3 0 5 5 4 8 9 9 6 4 5 6 8 8 7 9 10 11 10 9 8 8 9
29 29 30 30 31 30 30 27 14 4 4 2 3 4 2 4 3 2 2 4 4 3 5 3 3 5 3 0 1 1 2 5 6 6 8 8 8 8 6 6 7 6 4 2 2 4 4 7 5 5 5 5 7 8 8 8 8 9 8 6 6 7 2 4 3 3 2 4 4 3 8 10 6 4 4 6 7 7 5 6 8 9 10 7 8 9 9 9
29 30 30 30 30 29 30 25 8 1 3 0 3 3 4 5 4 3 4 4 3 3 5 3 4 5 4 4 3 3 4 5 7 8 7 8 9 7 5 7 7 3 4 4 4 4 6 7 1 1 2 4 7 8 9 10 10 9 8 7 6 4 1 4 4 4 3 3 5 6 10 8 2 2 3 6 7 6 4 2 7 10 11 7 6 7 9 10
30 30 30 30 29 28 29 20 4 2 4 2 4 2 3 2 3 3 5 5 1 4 4 4 4 4 5 4 4 6 6 4 7 9 9 9 8 4 4 6 4 2 5 6 5 4 4 1 4 3 2 6 8 8 10 9 9 9 8 8 7 4 2 1 4 6 4 4 6 9 10 5 2 1 1 6 7 5 6 5 6 7 9 9 7 8 10 12
30 31 30 30 29 27 28 15 1 2 5 5 5 1 1 2 3 4 5 4 1 4 3 2 2 3 3 2 5 9 5 1 3 7 11 10 5 3 4 4 3 3 4 3 4 7 3 6 4 2 4 7 8 8 10 9 7 9 10 9 8 5 3 4 1 4 4 5 5 9 8 2 2 2 3 6 6 6 6 5 5 4 5 6 7 9 9 9
30 31 31 31 28 28 25 7 4 4 8 5 4 2 1 3 3 4 5 4 3 4 3 3 2 2 2 3 6 6 3 3 2 4 10 10 5 3 2 1 4 3 2 1 5 6 0 5 1 3 5 9 8 7 10 9 5 7 10 9 8 6 5 5 3 4 5 4 2 6 7 1 3 4 5 5 5 7 6 5 4 3 2 5 5 6 7 7
31 31 32 31 29 29 19 1 1 9 9 4 4 4 2 5 2 4 4 4 5 5 4 5 3 4 4 5 7 4 5 5 3 3 7 7 4 3 3 2 3 2 2 3 5 2 2 3 1 2 3 8 9 7 9 10 7 3 5 5 7 8 7 6 6 6 5 1 2 3 6 3 2 4 5 4 5 7 6 5 4 1 4 6 6 6 6 6
32 31 32 30 29 27 13 2 8 11 5 1 3 4 4 5 3 5 4 4 4 3 4 3 1 3 3 3 6 4 2 6 6 5 5 5 4 4 4 3 2 1 1 4 3 2 1 2 3 2 3 7 8 4 6 10 8 1 4 2 5 6 6 5 5 5 3 1 3 2 4 4 2 4 3 2 4 6 6 5 5 4 6 8 9 9 7 6
33 33 32 29 28 24 10 7 10 7 3 1 3 3 5 3 4 4 5 4 3 1 2 3 3 2 2 2 6 5 0 4 4 5 5 5 6 4 5 4 3 1 1 6 3 4 2 2 1 3 6 4 1 4 3 7 4 2 1 2 3 3 4 4 5 3 2 3 2 3 2 4 2 4 3 3 1 4 6 5 6 7 8 9 11 12 9 7
34 34 32 29 28 20 9 7 8 6 5 4 4 2 4 3 4 4 5 3 3 2 1 3 3 4 4 4 6 5 3 3 2 4 7 6 6 5 4 2 4 4 3 7 6 2 2 1 1 5 6 2 6 6 2 3 0 3 2 2 2 3 4 4 4 2 2 5 2 2 2 5 2 3 3 2 2 2 4 6 6 8 9 10 12 13 10 8
34 34 32 30 24 13 8 9 9 8 6 5 3 2 3 5 4 5 6 2 3 4 3 2 3 5 6 7 6 6 6 4 2 4 7 5 6 7 4 2 5 7 5 6 6 2 1 2 2 3 2 4 5 4 2 0 2 5 5 3 2 2 2 3 3 3 5 4 1 3 2 4 3 1 2 2 1 2 3 5 5 7 9 11 13 12 10 9
34 34 32 28 19 9 6 5 4 5 7 4 1 2 5 5 4 6 4 1 2 5 5 5 5 5 7 6 5 6 7 6 5 6 7 4 7 8 5 5 5 6 6 5 5 4 4 5 4 2 2 1 4 5 3 2 3 4 4 2 3 3 2 4 3 3 6 2 2 2 2 4 3 1 3 2 2 2 3 5 7 8 10 11 12 10 9 9
33 34 31 25 17 10 8 3 1 3 7 3 1 5 5 4 6 5 2 2 3 6 4 4 6 6 5 5 4 6 6 6 7 7 6 5 5 6 5 4 2 4 4 2 3 5 4 3 4 5 3 4 5 4 3 2 3 5 5 3 5 4 3 5 4 4 4 1 3 1 2 4 2 3 3 1 1 1 1 3 6 10 11 12 11 9 9 8
34 33 28 20 12 8 8 8 7 5 5 2 4 6 5 5 6 3 4 4 1 3 2 2 4 4 4 5 6 6 5 4 7 7 6 4 4 5 5 4 5 5 3 1 2 5 4 6 6 5 4 3 6 4 2 2 3 4 4 3 5 5 5 5 4 4 2 2 3 0 2 3 1 2 2 1 1 1 1 1 3 8 11 12 11 10 11 9
34 31 22 12 6 5 5 7 11 8 4 5 6 6 6 7 3 0 4 5 3 2 2 2 3 5 6 5 4 5 5 5 6 6 6 6 6 5 6 6 6 6 4 3 3 2 1 4 5 1 2 3 5 5 5 4 3 2 2 4 4 4 4 5 3 4 2 1 1 3 2 3 2 1 1 1 1 1 2 2 0 6 10 9 8 8 9 9
32 26 15 6 4 6 6 4 11 9 6 6 6 6 8 7 3 3 4 3 3 3 4 2 4 6 7 5 3 4 3 3 7 7 6 6 6 4 3 4 7 6 5 3 1 1 4 2 6 4 2 1 2 2 4 7 4 2 1 4 3 2 3 4 4 5 6 4 1 2 3 1 2 1 3 1 1 0 1 2 3 2 7 8 3 4 6 6
29 20 8 2 3 7 6 3 10 9 6 6 7 8 7 4 1 1 1 2 1 2 3 5 6 7 7 6 6 6 2 1 5 6 6 7 5 4 3 1 5 7 6 3 1 2 3 3 7 4 3 3 3 2 1 5 3 1 4 3 3 3 4 5 3 2 5 6 2 1 3 1 2 2 3 2 2 1 1 3 6 5 5 8 5 3 6 6
27 15 3 2 5 8 4 5 10 8 6 7 8 7 4 1 2 2 2 2 1 1 4 6 5 5 7 6 6 8 5 4 6 6 5 6 5 6 7 3 3 6 6 4 2 1 3 2 6 4 3 5 1 2 1 1 4 4 2 2 4 1 4 4 3 3 4 5 1 1 4 3 1 1 2 2 1 2 3 5 7 8 7 8 8 9 9 7
20 9 2 5 8 5 2 8 8 6 6 6 8 7 3 1 1 2 2 2 2 2 6 6 2 2 6 6 6 8 6 5 6 6 6 5 4 4 8 6 4 4 4 4 2 1 3 2 6 5 2 4 3 5 3 3 1 4 3 2 1 4 3 2 3 4 3 4 3 1 2 4 2 2 1 1 2 4 5 6 7 8 9 7 6 9 10 9
12 6 0 6 8 7 6 5 5 6 6 7 8 6 3 2 1 1 2 2 3 4 5 5 2 2 5 4 3 6 5 4 4 5 5 5 4 4 5 4 4 4 5 5 3 1 2 4 3 6 3 3 4 5 4 2 3 1 2 3 2 4 4 2 3 4 4 5 4 1 2 1 2 3 2 2 4 4 5 6 7 8 9 7 5 4 7 7
8 4 2 5 4 5 6 3 5 6 6 6 5 3 1 2 1 1 2 2 4 4 4 3 2 4 5 4 3 3 4 4 3 4 4 5 5 5 5 5 4 5 6 6 4 1 2 4 1 4 5 4 3 1 4 4 2 3 4 4 2 2 3 3 4 4 4 6 4 3 5 1 5 2 1 3 4 4 6 6 6 7 8 7 5 2 2 4
5 2 3 4 5 6 7 5 6 5 6 5 4 3 1 2 3 3 3 3 5 5 4 5 5 5 4 5 4 3 4 4 5 5 4 5 7 5 5 6 6 8 7 6 5 3 3 3 3 2 3 2 1 3 3 4 4 5 5 4 4 3 3 5 5 3 3 5 5 5 6 2 4 2 2 3 2 4 6 6 5 6 7 6 5 4 3 4
5 2 3 4 5 5 5 5 4 3 6 3 2 2 0 2 4 4 3 4 6 5 4 5 6 6 5 5 4 3 5 6 6 6 5 6 8 4 5 5 6 9 7 4 4 2 1 3 3 2 2 3 4 4 1 2 3 5 4 4 4 4 5 6 6 3 2 4 4 5 7 1 4 3 3 3 3 4 5 5 5 5 5 6 5 5 5 4
3 4 2 3 4 3 5 5 4 4 5 1 1 2 1 3 5 4 3 5 5 5 5 5 6 6 6 5 4 4 6 6 6 6 5 5 6 3 6 7 7 9 8 3 4 4 1 2 2 1 0 1 4 4 3 2 4 5 3 1 3 4 4 6 6 4 5 6 4 6 7 1 3 3 3 3 3 3 3 3 4 4 4 5 5 5 5 5
4 4 1 2 2 3 5 4 3 5 4 2 3 5 4 4 5 5 5 5 4 5 6 6 6 6 5 4 5 5 5 5 6 7 5 5 3 5 6 9 8 8 6 2 3 5 3 2 2 4 3 3 4 5 5 4 4 4 1 1 3 4 3 5 4 2 6 7 4 6 6 1 3 1 1 1 2 3 2 2 2 2 3 4 4 5 4 5
4 3 2 0 2 4 3 2 2 3 3 3 5 6 5 5 5 5 5 5 5 5 6 5 4 5 5 5 5 6 6 6 5 5 4 5 3 4 5 7 7 7 3 4 2 5 3 2 3 5 5 4 3 2 1 1 2 2 1 2 3 4 4 4 4 4 5 3 2 7 6 1 2 2 2 1 2 2 2 1 1 2 3 3 4 4 4 4
3 1 1 2 3 3 2 0 3 4 2 3 5 5 6 6 4 3 5 5 4 4 6 6 5 6 7 7 8 8 9 9 6 4 5 6 5 4 4 6 5 3 6 5 3 5 2 3 3 4 6 5 5 3 3 3 3 1 1 3 4 3 4 5 4 4 4 3 4 5 5 5 5 3 1 1 2 2 2 1 1 2 3 4 4 4 3 3
3 2 2 1 1 2 3 2 3 3 1 2 3 2 5 7 4 4 5 4 2 3 6 6 5 6 7 8 9 9 9 9 7 6 7 6 5 5 5 7 5 5 8 5 6 4 3 4 4 5 5 3 2 1 1 3 4 3 2 4 3 3 4 6 5 3 4 5 4 1 2 6 8 5 4 4 3 3 2 1 2 2 3 4 3 3 3 3
2 2 2 2 2 2 2 0 1 2 2 3 3 3 5 7 5 4 3 3 3 3 4 5 6 5 5 5 6 7 9 8 8 8 7 5 6 7 7 8 7 7 8 7 6 4 5 4 4 6 5 2 2 2 3 4 4 3 4 4 4 5 6 6 6 4 3 5 5 4 4 7 7 7 6 5 4 4 2 2 2 2 3 3 3 3 3 4
1 1 1 1 3 3 2 2 2 4 5 4 4 5 7 7 6 3 2 3 5 3 2 4 4 3 5 4 5 6 6 5 6 8 7 6 8 8 8 8 7 8 9 8 6 4 5 2 3 6 6 5 5 4 4 6 6 5 6 5 5 6 7 7 8 7 6 8 9 8 9 9 7 7 5 4 4 3 1 1 1 1 2 2 3 3 3 3
2 2 2 2 4 3 3 3 3 5 4 3 4 5 6 7 5 2 2 5 5 3 1 3 4 6 5 2 5 4 2 5 4 2 3 5 7 7 7 8 7 8 10 8 6 4 4 2 4 6 6 6 7 6 7 8 7 7 7 6 6 7 8 8 8 7 7 8 8 8 10 8 3 2 2 2 2 2 2 2 1 0 1 2 3 3 2 3
4 3 3 4 3 1 3 4 4 5 5 5 5 4 5 6 4 3 5 7 7 5 2 4 7 7 3 2 3 2 7 9 9 7 6 6 4 3 4 4 6 9 10 8 6 6 5 3 3 4 7 6 6 8 9 8 8 9 9 9 9 8 8 7 6 6 6 7 7 7 7 3 2 2 1 2 2 3 3 2 1 1 2 2 4 3 2 2
4 2 2 4 3 1 3 3 4 5 4 3 3 3 4 4 1 3 5 4 5 4 2 5 8 7 3 2 2 8 11 12 11 9 8 8 7 5 3 2 4 7 8 8 7 6 6 5 3 4 7 4 4 6 8 7 8 9 6 6 8 8 8 7 5 6 6 6 6 6 4 4 3 1 3 3 3 4 2 1 1 2 3 3 4 3 2 1
Wind_Direction
354 349 349 348 348 352 353 353 349 345 342 340 341 341 343 342 345 348 351 354 351 347 347 346 338 339 340 337 336 333 338 338 308 244 226 257 232 211 189 179 176 162 155 152 161 164 166 185 183 191 217 215 231 256 238 268 266 266 267 280 7 34 44 14 350 66 171 212 189 150 197 237 149 164 165 181 196 141 145 137 118 119 85 85 109 129 140 144
356 352 351 351 351 352 352 351 346 343 343 341 339 337 339 336 340 345 344 349 347 344 347 343 338 339 337 336 335 333 341 326 265 243 231 254 221 197 182 174 172 157 153 163 171 176 179 179 177 194 219 223 190 193 262 231 240 272 297 307 60 34 41 28 356 30 242 231 144 163 188 245 203 152 177 202 169 160 166 144 143 134 116 116 126 137 142 147
4 1 358 355 353 351 350 347 342 342 342 341 338 333 331 327 332 334 331 341 341 341 343 339 337 337 334 334 332 335 339 292 246 151 57 232 196 175 167 168 160 150 161 177 178 192 207 181 181 202 225 232 184 209 261 174 228 292 298 312 59 25 24 62 358 333 281 13 159 174 163 192 202 147 191 226 174 189 192 145 154 145 135 136 139 145 149 153
10 6 3 358 354 351 348 344 340 340 340 340 335 326 322 320 322 322 321 329 331 336 337 336 337 333 334 330 330 340 314 266 180 77 48 181 167 147 152 157 152 150 167 171 169 190 210 183 186 216 235 230 178 220 262 157 268 307 293 335 35 359 353 63 15 329 151 258 169 165 187 179 154 175 201 229 218 188 113 28 155 142 142 147 150 153 155 159
10 8 5 1 357 352 347 343 340 338 338 336 328 321 316 312 313 312 311 317 321 329 332 333 336 332 333 328 332 343 280 254 100 79 62 154 152 140 149 156 154 153 167 167 160 168 183 183 192 214 232 238 196 203 239 78 289 286 284 353 12 332 344 48 31 93 161 195 172 176 204 164 144 205 209 229 256 86 50 323 42 132 146 154 156 156 159 162
9 8 6 4 1 355 350 345 341 338 336 330 324 317 309 306 305 304 303 307 312 318 327 331 334 334 331 330 336 302 265 5 87 84 98 158 160 146 153 162 159 155 171 177 168 177 181 190 205 209 224 236 232 231 25 45 274 286 314 27 6 339 343 15 55 138 178 190 184 178 172 156 204 221 207 235 265 22 33 326 73 133 148 155 157 160 163 164
10 9 7 5 2 359 355 349 343 338 332 325 320 312 305 300 296 296 298 300 304 311 322 328 333 335 331 336 332 247 243 65 74 86 122 169 170 156 157 162 162 163 182 189 182 190 187 200 213 215 231 229 248 298 353 297 250 270 310 27 10 351 340 333 71 162 179 162 159 150 172 197 232 236 201 238 249 286 343 3 133 141 145 154 159 164 165 165
10 9 8 6 4 2 359 354 347 339 331 324 317 310 303 295 292 292 293 294 298 305 314 326 333 332 336 342 280 233 141 65 66 97 122 172 179 171 160 159 171 180 197 198 190 196 195 205 214 217 232 234 342 312 321 284 234 262 319 5 0 12 25 347 117 152 156 127 136 184 210 201 233 269 259 251 247 270 305 110 154 149 150 159 162 166 167 167
10 10 8 8 6 4 2 357 349 340 332 324 316 310 302 294 291 287 287 290 292 300 309 321 329 328 341 323 265 239 89 55 75 95 94 159 182 177 168 168 181 192 202 199 199 207 204 208 212 245 267 289 323 304 308 286 254 357 331 345 358 78 88 107 120 133 143 117 167 219 222 194 182 254 249 228 232 262 245 176 160 158 160 163 164 167 169 171
10 10 9 8 7 5 3 359 351 343 334 326 317 308 300 293 291 286 285 286 286 293 302 316 328 329 332 286 266 240 87 66 110 106 100 144 176 178 183 189 187 200 204 190 200 211 217 215 171 289 287 283 294 298 304 303 341 5 342 54 64 104 111 130 127 125 147 100 15 262 243 193 170 238 238 168 170 235 210 177 167 170 168 165 167 168 172 173
11 10 9 8 6 4 2 358 353 343 335 327 317 307 300 294 290 286 283 282 283 286 294 310 317 330 310 272 280 76 104 95 128 129 120 135 163 176 193 199 194 204 198 188 199 208 262 17 7 269 254 247 263 262 293 325 328 3 274 95 99 122 111 125 138 121 213 88 26 322 280 231 192 223 229 120 139 216 205 181 173 180 173 168 169 166 173 175
11 10 9 8 6 4 0 358 353 344 337 327 317 310 304 300 295 289 284 279 276 274 281 293 296 347 296 263 330 75 124 142 151 148 137 144 162 173 192 196 198 208 200 196 192 196 275 350 303 277 327 323 258 245 38 331 297 258 251 254 131 154 125 114 135 122 248 310 25 320 284 245 204 197 117 94 85 219 216 194 180 186 176 171 171 167 174 173
10 9 8 7 5 2 359 357 352 345 337 327 322 317 313 312 303 294 287 277 267 259 256 268 326 338 276 255 78 101 144 144 168 160 155 163 165 158 166 178 192 209 210 196 169 184 251 285 295 301 341 294 274 354 320 271 269 251 243 267 197 193 162 115 150 164 228 32 22 297 287 250 168 138 99 83 1 233 227 207 190 188 176 175 173 171 175 171
7 6 7 6 5 1 358 355 351 346 337 330 329 326 328 324 310 295 281 264 248 230 213 222 48 279 261 75 96 166 165 146 196 182 177 178 171 153 150 164 175 187 202 126 83 129 243 259 275 269 275 285 327 333 258 228 235 247 235 238 244 234 149 135 162 191 225 151 88 269 279 273 128 115 106 101 86 232 236 218 201 189 177 179 174 177 177 172
4 4 5 5 4 1 357 353 350 346 337 334 337 339 343 339 334 297 189 156 189 176 134 51 43 254 242 106 121 195 225 218 197 187 188 185 182 155 146 167 168 175 196 235 50 122 259 252 251 245 189 238 269 253 241 219 215 231 245 223 219 252 146 137 144 209 260 149 170 247 281 303 117 113 119 123 126 220 241 235 216 185 170 175 174 183 183 175
1 1 2 3 3 0 357 352 348 345 337 336 342 350 2 14 54 99 113 113 148 134 110 296 201 252 273 100 135 202 216 202 170 174 185 190 197 132 126 154 160 172 191 210 218 212 254 247 252 287 261 223 235 244 242 230 213 206 241 248 227 265 243 142 145 167 257 227 208 234 279 312 88 134 147 150 217 248 243 243 223 173 160 168 165 185 191 180
359 358 359 0 1 359 356 351 347 344 336 337 346 8 24 51 86 95 96 99 117 119 140 291 257 257 289 106 159 175 159 158 136 156 173 188 199 139 136 150 149 164 174 174 196 200 216 227 227 241 235 233 241 255 245 233 222 201 220 248 248 271 285 260 144 143 185 232 238 232 255 293 301 254 237 196 252 271 258 246 223 177 171 175 166 189 202 192
357 356 356 357 359 358 355 351 347 342 333 337 347 20 38 90 99 87 87 88 93 135 213 267 256 256 150 143 175 115 117 130 133 149 160 172 185 176 171 154 142 157 167 168 184 198 201 202 225 233 218 223 230 233 235 239 287 274 247 265 260 246 261 307 82 145 199 237 258 257 258 289 300 297 293 254 265 278 267 253 227 191 184 181 178 193 197 205
354 354 354 354 356 356 354 350 346 342 331 336 345 337 51 137 124 152 186 163 214 247 233 168 220 287 98 133 108 76 119 138 151 163 160 162 176 187 190 177 169 177 188 182 176 192 212 203 217 240 225 218 220 226 245 283 334 321 310 296 299 279 253 21 58 109 257 264 263 274 286 302 301 303 305 300 310 285 268 257 230 196 187 184 184 198 189 204
354 353 351 352 353 354 354 348 345 345 326 328 241 254 248 231 205 176 200 218 240 278 305 178 243 285 88 119 106 107 155 175 189 178 165 167 175 181 185 188 191 199 216 205 159 172 219 230 221 235 238 230 229 234 254 281 292 278 273 266 278 281 269 85 95 115 16 283 281 287 294 299 297 303 317 321 320 293 273 244 221 190 188 183 173 201 197 199
353 351 350 350 350 352 352 346 347 350 327 340 219 253 348 3 346 23 324 244 208 243 268 283 296 280 285 347 239 244 195 184 185 169 159 172 189 189 175 190 207 195 197 227 152 147 211 243 236 237 256 253 239 236 242 253 251 250 256 255 260 268 264 97 114 137 146 281 301 301 292 296 298 310 325 329 323 315 300 236 208 168 177 176 160 194 206 203
353 350 349 347 346 350 351 346 350 16 344 75 228 268 39 28 357 341 312 269 180 188 248 253 265 266 255 249 243 253 248 193 170 168 163 180 203 203 162 191 223 172 150 205 208 179 210 234 209 107 256 235 227 228 220 225 233 235 239 246 254 256 221 113 140 169 174 274 311 318 303 304 340 342 336 353 347 348 2 199 179 166 170 159 157 193 204 206
352 349 347 345 344 348 348 345 356 51 357 284 267 322 64 24 328 269 260 277 199 166 209 221 237 234 199 212 198 205 235 200 167 167 169 192 204 211 201 198 221 160 172 209 230 244 228 149 79 94 211 213 211 213 212 218 225 227 227 232 243 246 256 253 167 175 200 260 298 306 296 293 87 119 34 37 29 33 46 95 141 164 157 142 174 209 208 202
351 348 346 344 341 345 347 344 108 48 348 293 276 356 77 319 309 255 248 281 233 154 177 198 245 239 182 134 175 197 220 182 181 155 165 199 193 173 224 220 230 215 194 221 263 271 306 58 56 212 215 216 208 200 209 216 213 218 225 230 242 247 267 289 196 172 216 227 266 297 291 267 93 48 68 67 63 66 68 99 114 111 125 148 188 207 215 208
350 347 346 343 340 342 344 342 147 358 328 283 240 186 266 318 296 242 258 269 191 146 161 183 205 209 144 124 173 203 221 166 184 132 164 206 210 168 214 237 248 229 118 282 267 261 66 67 13 239 208 213 211 200 209 221 217 204 213 230 260 279 277 270 230 219 245 220 222 303 307 44 95 50 53 72 76 73 85 124 114 80 163 215 214 204 220 220
348 346 345 342 339 340 342 69 111 331 309 256 199 193 302 327 272 205 256 259 183 145 161 182 184 159 153 168 171 205 227 172 115 109 171 210 232 254 251 177 228 298 21 289 270 264 96 99 243 263 203 203 213 214 202 218 240 190 167 218 259 269 262 249 229 241 276 318 131 285 312 338 92 71 60 68 81 88 98 121 125 136 229 238 242 229 228 224
346 346 343 339 339 340 340 303 322 316 282 195 180 217 312 323 215 181 247 238 175 146 169 161 132 151 151 165 179 219 218 130 124 152 181 205 197 235 253 195 204 230 285 280 253 153 129 171 193 245 233 202 209 213 182 213 249 33 91 193 229 237 235 225 226 242 290 351 162 195 306 314 26 66 79 95 92 108 116 127 153 199 227 235 243 242 244 245
345 345 342 337 335 337 328 289 309 302 276 311 186 235 324 302 196 202 258 234 140 120 180 124 94 156 150 159 206 244 9 125 163 152 153 202 200 217 244 244 281 255 208 279 283 103 108 228 192 273 265 217 112 47 132 208 247 42 79 209 199 219 213 205 229 244 294 280 219 133 314 302 17 72 121 169 163 133 137 157 185 206 221 233 239 241 254 262
343 343 342 334 330 335 328 286 280 265 265 241 206 291 328 240 211 236 262 257 145 156 154 117 136 175 176 182 207 230 227 213 231 117 145 194 212 240 269 274 289 282 235 261 285 45 56 346 323 286 289 26 58 55 102 224 296 102 165 158 146 201 202 213 247 263 260 267 292 56 322 308 9 92 135 168 215 174 151 171 194 207 211 224 235 239 248 248
341 342 341 333 329 336 323 289 267 251 233 207 217 317 272 226 235 238 227 215 162 148 132 163 167 169 183 197 197 198 215 215 140 142 169 187 198 217 271 289 263 272 242 226 253 295 69 118 205 261 331 56 81 89 89 13 109 151 181 165 171 214 223 250 274 295 270 254 11 27 331 315 338 69 99 94 149 146 157 168 185 219 219 218 227 233 239 234
339 339 338 330 322 312 291 290 276 234 200 186 228 240 231 223 245 248 211 157 173 154 160 180 165 169 194 214 197 173 202 204 170 185 191 181 191 201 224 221 220 244 230 200 196 184 161 163 163 134 80 114 146 125 94 114 150 195 228 248 250 229 225 255 234 246 267 261 76 15 329 294 295 38 66 66 112 143 173 176 183 215 231 229 226 226 229 231
337 337 334 325 313 290 264 259 338 174 170 164 237 219 229 217 224 245 174 145 195 169 168 166 159 178 195 227 223 179 192 195 183 207 216 202 204 206 218 226 230 238 226 173 158 174 160 135 120 120 155 228 211 161 136 163 206 249 255 249 258 247 226 248 237 231 256 53 56 348 297 280 298 57 57 81 136 144 179 205 200 207 220 230 227 219 219 222
336 336 331 322 311 292 268 248 225 184 159 197 227 214 236 231 223 235 177 179 157 124 145 151 165 188 199 217 208 184 197 189 176 201 216 223 235 218 212 237 281 282 281 10 206 194 151 128 145 161 156 207 250 238 188 187 209 247 264 252 264 271 259 256 250 250 255 63 47 278 238 274 274 91 77 98 79 28 18 294 240 221 221 225 225 219 218 208
336 337 332 328 329 323 309 241 207 195 203 226 215 203 224 233 227 331 197 178 100 97 154 167 198 206 213 224 186 173 211 194 175 198 202 210 232 224 206 202 226 259 270 255 252 260 223 135 131 133 114 160 250 281 327 313 238 217 319 290 275 284 287 291 296 292 299 61 133 195 230 300 316 152 118 61 1 5 358 21 154 224 222 221 228 229 226 213
337 340 336 343 0 340 333 236 193 193 211 215 209 206 217 229 222 207 202 148 124 171 164 174 233 212 201 211 181 184 245 189 175 205 214 216 231 232 219 181 185 225 256 243 200 289 275 101 88 54 46 106 272 316 321 295 268 133 212 259 276 328 304 293 307 327 325 300 235 212 254 340 42 152 152 175 277 58 8 42 79 185 197 185 208 280 276 257
339 341 330 348 354 331 328 216 181 186 215 216 208 213 220 240 278 218 179 70 118 201 191 191 214 219 200 184 182 187 222 202 187 204 214 222 238 236 234 156 168 211 248 266 203 224 258 112 107 118 110 84 0 20 307 283 292 163 220 234 56 25 297 283 286 307 288 275 261 248 267 188 130 188 171 187 241 152 65 59 68 71 134 146 150 227 260 263
337 336 321 13 340 320 304 180 172 190 224 222 215 223 227 233 358 13 23 5 317 283 253 213 196 227 212 185 179 174 173 193 197 213 214 200 216 221 213 190 169 211 241 275 277 264 272 142 128 156 132 109 49 330 114 289 301 285 269 77 88 194 251 270 282 261 253 266 250 163 290 291 246 221 178 197 198 110 68 58 67 71 88 113 147 191 224 235
326 312 291 8 360 355 138 157 170 208 224 221 225 234 251 219 75 22 9 338 289 260 252 232 197 240 223 203 176 159 174 196 180 204 223 192 184 207 206 191 172 207 234 255 253 117 277 245 142 165 178 131 183 238 196 151 255 314 351 58 252 263 237 205 275 290 284 284 284 89 329 293 306 27 110 159 59 62 58 59 61 63 70 84 136 182 213 223
304 270 186 31 38 65 87 141 196 226 217 218 225 220 231 228 138 19 323 310 276 252 250 246 227 231 228 225 174 153 187 219 179 198 220 199 178 177 198 197 170 186 206 227 245 115 257 273 154 153 184 177 196 236 252 173 152 228 262 209 235 297 300 286 296 302 297 286 288 327 299 248 76 29 8 60 56 38 38 52 54 55 63 68 90 165 215 220
293 270 101 46 22 21 6 301 224 219 211 222 239 212 182 236 223 258 262 271 269 258 262 267 233 216 216 225 234 186 197 226 220 224 212 190 193 178 181 196 169 163 182 206 233 172 202 269 276 154 185 221 226 303 325 317 289 254 253 244 228 246 271 280 274 265 281 290 291 292 289 13 93 80 14 64 57 33 30 36 45 54 61 64 64 56 271 255
284 268 106 46 328 323 323 257 203 210 219 226 260 243 200 308 283 258 235 243 262 263 280 287 264 244 231 229 229 203 205 219 216 232 218 193 214 205 173 186 171 155 169 192 202 201 209 256 282 225 216 243 42 47 7 337 325 305 293 295 293 282 274 270 260 233 240 279 296 293 289 345 83 91 69 68 48 39 33 23 31 45 53 59 58 41 353 304
277 309 71 30 334 316 288 233 183 223 234 225 285 256 305 318 274 264 248 233 243 242 246 264 262 258 253 245 240 212 222 229 213 222 230 209 221 214 151 169 177 171 184 189 148 120 327 278 283 312 337 12 72 90 56 346 321 294 289 304 296 279 275 275 278 289 272 276 301 291 280 327 73 47 45 46 22 25 23 17 21 31 50 57 50 39 16 344
307 342 42 16 336 300 265 231 175 214 229 209 346 254 232 261 253 253 242 229 233 230 227 239 245 244 241 239 247 230 222 233 226 223 238 225 216 148 129 163 181 186 204 202 135 137 216 263 272 298 261 136 137 155 185 236 275 268 250 289 297 288 294 292 298 317 291 274 275 266 264 272 68 30 37 32 357 350 356 14 12 9 40 54 50 44 21 6
327 312 278 354 319 248 249 245 207 215 207 184 246 232 218 244 255 253 245 232 228 231 233 237 237 238 234 228 241 237 218 224 224 219 240 239 191 93 129 174 190 197 205 206 155 176 203 225 256 270 247 200 189 192 192 199 238 266 271 32 311 300 296 286 288 284 267 274 286 272 270 67 95 143 101 58 305 307 325 359 10 9 34 46 44 43 25 12
302 255 203 197 208 220 252 296 297 253 201 209 244 240 228 229 230 246 272 263 244 254 253 243 245 250 237 225 235 239 233 239 232 214 235 234 162 108 148 178 203 207 159 50 116 181 205 231 237 280 296 295 291 308 350 272 243 264 283 269 265 269 275 279 278 259 259 282 290 265 274 38 123 171 140 190 266 292 314 323 44 43 39 48 44 32 24 16
311 265 202 160 172 214 242 313 287 272 248 241 246 238 239 235 203 199 261 256 230 257 265 254 259 253 233 228 236 231 223 229 234 227 235 221 174 128 153 173 201 172 100 86 180 186 206 231 228 279 298 315 336 8 22 319 302 317 271 254 247 257 272 269 263 273 291 298 269 261 285 302 282 267 301 303 296 316 320 337 45 56 51 57 47 21 23 30
302 321 349 5 197 215 197 181 237 250 262 267 258 233 238 245 226 189 214 229 222 267 267 249 243 247 232 226 236 231 214 215 221 225 237 223 163 116 147 176 177 125 119 151 191 190 229 221 201 239 260 294 344 38 139 272 293 321 297 265 254 242 249 254 262 309 328 290 281 13 349 294 293 298 306 322 329 315 310 347 22 40 55 56 39 9 19 29
300 340 17 347 293 238 201 169 272 259 244 236 253 264 247 246 245 219 205 224 238 259 265 221 209 243 266 247 245 233 207 203 210 211 221 216 170 148 159 178 176 156 163 186 182 195 250 235 183 216 228 204 201 196 197 240 268 286 276 275 271 249 246 259 271 288 296 280 292 336 311 290 297 300 305 330 330 315 333 5 0 25 52 46 10 351 15 17
308 298 64 291 284 296 315 334 311 268 244 224 236 243 242 248 248 239 258 259 234 221 257 237 211 283 297 261 246 237 211 209 216 203 203 206 191 180 174 175 176 176 190 195 172 199 264 253 183 229 228 200 206 214 219 233 246 256 262 269 267 258 256 264 277 286 285 281 288 299 294 288 289 294 310 343 337 324 334 297 290 31 46 25 340 334 16 21
333 330 16 280 267 280 285 267 255 255 229 205 227 226 233 251 255 259 275 262 245 208 222 293 326 340 327 243 217 238 331 344 313 254 219 214 199 197 199 188 179 186 201 202 175 188 247 224 193 229 235 214 211 223 233 241 251 257 264 271 264 265 266 261 268 280 277 280 289 293 290 286 287 323 335 337 311 285 245 247 257 338 7 346 309 314 6 19
329 330 340 295 274 243 253 240 237 255 237 214 221 215 223 236 255 306 277 256 265 275 310 342 341 338 323 184 182 351 1 341 319 314 298 271 253 247 233 205 187 189 200 206 192 192 217 218 180 219 254 244 211 226 239 243 253 255 260 265 254 250 261 262 265 270 268 285 295 286 287 310 78 87 281 244 256 263 253 253 256 268 300 297 287 298 341 353
316 268 257 284 278 212 241 237 218 237 247 235 232 240 242 228 229 304 274 239 245 263 322 347 337 324 272 195 42 2 344 324 310 302 289 282 286 283 270 248 222 210 204 205 207 206 214 228 210 227 266 261 188 231 253 248 253 255 254 263 252 239 249 260 266 260 253 271 288 289 316 7 51 263 267 264 270 281 285 288 282 276 272 271 277 282 288 307